User: anonymous   Login
Location: Kitchener
(43.4500°N, 80.5000°W)
Time: 23:41:48
(UTC-04:00)
Language:

Cosmos 1939 Rocket - Orbit

View from above orbital plane
View from above orbital plane
View from above satellite
View from above satellite

Ground track
Ground track

The orbit data is extracted from the following two-line orbital elements,

1 19046U 88032B   14298.71610557  .00003164  00000-0  25583-3 0   303
2 19046 097.6359 350.8976 0038246 020.4298 339.8445 14.99937174427763
Epoch (UTC): 25 October 2014 17:11:11
Eccentricity: 0.0038246
inclination: 97.6359°
perigee height: 540 km
apogee height: 593 km
right ascension of ascending node: 350.8976°
argument of perigee: 20.4298°
revolutions per day: 14.99937174
mean anomaly at epoch: 339.8445°
orbit number at epoch: 42776

The dashed part of the orbit path shows where the satellite is in the earth's shadow,  

DLR